EXPLORER 38 (RAE-A)

导读

EXPLORER 38(RAE-A,也叫RAE-1)是美国NASA探索者系列卫星中的第一颗射电天文探险者卫星,于1968年7月4日发射。作为探索者计划的空间科学探测任务,它核心任务是开展射电天文观测,卫星入轨后伸出4根长达228米的巨型天线,用于捕捉宇宙空间射电信号,推动了早期空间射电天文学发展,至今仍在轨运行。

基本信息
目录编号:
3307
目录名称:
EXPLORER 38 (RAE-A)
国际标识:
1968-055A
轨道中心:
EARTH
卫星名称:
EXPLORER 38 (RAE-A)
卫星全名:
--
卫星状态:
在轨 (已飞行21194 天)
发射日期:
1968-07-04 UTC
国别 :
美国 (US)
星等 :
--
轨道信息
数据来源 国际轨道数据 AOE轨道数据
星历时间 2026-07-14T03:33:11+0800
13小时前
查看轨道信息
2026-07-14T09:00:00+0800
7小时前
查看轨道信息
半长轴 12221.625km 12221.663km
偏心率 0.0017412 0.0017872
轨道倾角 120.806° 120.805°
近地点辐角 283.834° 284.644°
升交点赤经 177.127° 177.248°
平近点角 76.033° 240.231°
近地点 5822.207km 5821.683km
远地点 5864.769km 5865.369km
周期 224.106分钟 224.107分钟
每日圈数 6.425536 6.425506
详细信息
使用方式:
暂无
2D轨道图
3D轨道图
轨道高度分析图
轨道倾角分析图
轨道综合分析图
查看轨道综合分析图